Location: Isle of Man Observatory
(54.1776°N, 4.6264°W)
Time: 15:01:47
(UTC+02:00)

ARIANE 6 FM1 Upper Stage - Pass Details

Date: 22 April 2026
Orbit: 526 x 601 km, 62.0° (Epoch: 19 May)

Event Time Altitude Azimuth Distance (km) Brightness Sun altitude
Rises 23:30:38 0° 300° (WNW) 2,694 7.6 -14.7°
Reaches altitude 10° 23:33:02 10° 311° (NW) 1,793 6.6 -14.9°
Maximum altitude 23:36:40 32° 15° (NNE) 939 4.1 -15.2°
Enters shadow 23:40:13 10° 80° (E) 1,758 4.9 -15.6°
